Home   Weather   Mostar   Past weeks

Flag for Bosnia-Herzegovina Past Weather in Mostar, Bosnia-Herzegovina — Yesterday and Last 2 Weeks

Now
37 °F

Partly cloudy.


Feels Like: 34 °F
Forecast: 33 / 38 °F
Wind: 5 mph from East

Location: Mostar

Current Time: Jan 16, 2017 at 8:22:20 pm

Latest Report: Jan 16, 2017 at 8:00 pm


Visibility: N/A

Pressure: 29.71 "Hg

Humidity: 60%

Dew Point: 25 °F

Location of MostarLocation

Past Weather in Mostar — Graph

°F

Mostar Temperature Yesterday

Maximum temperature yesterday: 48 °F (at 1:00 pm)
Minimum temperature yesterday: 21 °F (at 4:00 am)
Average temperature yesterday: 32 °F

High & Low Weather Summary for the Past Weeks

 TemperatureHumidityPressure
High54 °F (Jan 13, 5:00 pm)100% (Jan 3, 4:00 am)30.24 "Hg (Jan 3, 4:00 am)
Low10 °F (Jan 8, 5:00 am)13% (Jan 8, 1:00 pm)29.42 "Hg (Jan 13, 7:00 pm)
Average31 °F56%29.96 "Hg
* Reported Jan 1 7:00 pm — Jan 16 7:00 pm, Mostar, Weather by CustomWeather, © 2017

Note: Actual official high and low records may vary slightly from our data, if they occured in-between our weather recording intervals... More about our weather records

Advertising

Mostar Weather History for the Previous 24 Hours

Scroll right to see more
 ConditionsComfort  
Time TempWeatherWind HumidityBarometerVisibility
7:00 pm
Mon, Jan 16
37 °FOvercast.2 mph60%29.71 "HgN/A
6:00 pm37 °FPartly cloudy.2 mph60%29.71 "HgN/A
5:00 pm39 °FMostly cloudy.2 mph52%29.71 "HgN/A
4:00 pm41 °FMostly cloudy.3 mph53%29.71 "HgN/A
3:00 pm41 °FPartly sunny.3 mph45%29.71 "HgN/A
2:00 pm41 °FPartly sunny.3 mph49%29.71 "HgN/A
1:00 pm41 °FBroken clouds.5 mph45%29.71 "HgN/A
12:00 pm39 °FBroken clouds.3 mph48%29.74 "HgN/A
11:30 am39 °FBroken clouds.5 mph48%29.74 "HgN/A
11:00 am39 °FBroken clouds.3 mph48%29.77 "HgN/A
10:30 am39 °FScattered clouds.6 mph48%29.77 "HgN/A
10:00 am39 °FScattered clouds.6 mph48%29.77 "HgN/A
9:30 am39 °FPassing clouds.5 mph42%29.77 "HgN/A
9:00 am39 °FPassing clouds.3 mph42%29.77 "HgN/A
8:30 am36 °FScattered clouds.2 mph56%29.77 "HgN/A
8:00 am36 °FScattered clouds.2 mph52%29.77 "HgN/A
7:30 am39 °FScattered clouds.3 mph42%29.77 "HgN/A
7:00 am36 °FMostly cloudy.2 mph52%29.77 "HgN/A
6:30 am34 °FPassing clouds.3 mph60%29.77 "HgN/A
6:00 am34 °FClear.7 mph60%29.77 "Hg10 mi
5:00 am37 °FClear.2 mph48%29.77 "Hg10 mi
4:30 am34 °FPassing clouds.6 mph65%29.80 "HgN/A
3:00 am36 °FClear.2 mph56%29.83 "Hg10 mi
2:00 am34 °FPassing clouds.5 mph60%29.83 "HgN/A
1:00 am34 °FClear.2 mph60%29.86 "Hg10 mi
12:00 am30 °FClear.5 mph75%29.89 "Hg10 mi
11:00 pm
Sun, Jan 15
30 °FPassing clouds.5 mph69%29.89 "HgN/A
10:00 pm28 °FClear.2 mph74%29.92 "Hg10 mi
9:00 pm30 °FPassing clouds.3 mph69%29.92 "HgN/A
8:00 pm32 °FClear.2 mph64%29.95 "Hg10 mi
Weather by CustomWeather, © 2017

See weather overviewHow to use our weather pages